Location: Milton
(43.5183°N, 79.8775°W)
Time: 05:17:36
(UTC+00:00)

N. Korean satellite - Pass Details

Date: 13 December 2022
Orbit: 407 x 444 km, 97.3° (Epoch: 28 January)

Event Time Altitude Azimuth Distance (km) Brightness Sun altitude
Rises 10:05:27 0° 23° (NNE) 2,470 10.4 -27.8°
Reaches altitude 10° 10:07:43 10° 35° (NE) 1,582 9.5 -27.4°
Maximum altitude 10:10:40 28° 96° (E) 871 8.4 -26.9°
Drops below altitude 10° 10:13:34 10° 157° (SSE) 1,541 9.4 -26.3°
Sets 11:47:37 0° 231° (SW) 2,404 9.8 -9.9°
